N7069G KSAN-KLAS

Flight info

Callsign N7069G
Flight time N/A
Altitude 27000
Route PADRZ2 CHKNN SEBBY YELAH MISEN RNDRZ4
Aircraft PC12/L-VGD/C

Departure

Time 2026-04-26 04:24
Airport San Diego International Airport (KSAN)

Arrival

Time N/A
Airport Harry Reid International Airport (KLAS)
Time Latitude Longitude Altitude Speed Heading
2026-04-26 04:10 32.73444 -117.18492 19 ft 0 kts 15°
2026-04-26 04:18 32.73445 -117.18491 19 ft 3 kts 16°
2026-04-26 04:18 32.73445 -117.18449 19 ft 9 kts 128°
2026-04-26 04:19 32.73391 -117.18408 19 ft 11 kts 172°
2026-04-26 04:19 32.73325 -117.18358 19 ft 14 kts 114°
2026-04-26 04:19 32.73294 -117.18239 18 ft 17 kts 106°
2026-04-26 04:19 32.73259 -117.18095 18 ft 19 kts 106°
2026-04-26 04:20 32.73221 -117.17931 17 ft 22 kts 106°
2026-04-26 04:20 32.73174 -117.17752 18 ft 23 kts 106°
2026-04-26 04:20 32.73144 -117.17624 17 ft 15 kts 108°
2026-04-26 04:20 32.73118 -117.17572 17 ft 0 kts 144°
2026-04-26 04:23 32.73117 -117.17571 17 ft 1 kts 144°
2026-04-26 04:23 32.73066 -117.17537 17 ft 14 kts 174°
2026-04-26 04:23 32.73045 -117.17665 16 ft 40 kts 283°
2026-04-26 04:24 32.73196 -117.18286 42 ft 111 kts 285°
2026-04-26 04:24 32.73428 -117.19373 156 ft 162 kts 283°
2026-04-26 04:24 32.73776 -117.20797 389 ft 191 kts 294°
2026-04-26 04:24 32.74490 -117.22114 1091 ft 189 kts 316°
2026-04-26 04:25 32.75602 -117.22981 1643 ft 201 kts 330°
2026-04-26 04:25 32.76872 -117.23817 1995 ft 213 kts 324°
2026-04-26 04:25 32.77866 -117.25093 2657 ft 207 kts 310°
2026-04-26 04:25 32.78720 -117.26357 3682 ft 186 kts 306°
2026-04-26 04:26 32.79484 -117.27541 4507 ft 184 kts 310°
2026-04-26 04:26 32.80414 -117.28715 4885 ft 202 kts 314°
2026-04-26 04:26 32.81345 -117.29985 5421 ft 206 kts 312°
2026-04-26 04:26 32.82390 -117.31142 6153 ft 200 kts 325°
2026-04-26 04:27 32.83361 -117.32251 7042 ft 186 kts 311°
2026-04-26 04:27 32.84263 -117.33352 7746 ft 185 kts 306°
2026-04-26 04:27 32.84699 -117.34674 8794 ft 163 kts 285°
2026-04-26 04:27 32.85081 -117.35858 9709 ft 150 kts 301°
2026-04-26 04:28 32.85698 -117.36861 10434 ft 150 kts 308°
2026-04-26 04:28 32.86352 -117.37831 11092 ft 152 kts 309°
2026-04-26 04:28 32.87028 -117.38814 11767 ft 154 kts 309°
2026-04-26 04:28 32.87708 -117.39800 12427 ft 155 kts 309°
2026-04-26 04:29 32.88392 -117.40795 13081 ft 157 kts 309°
2026-04-26 04:29 32.89095 -117.41818 13740 ft 159 kts 309°
2026-04-26 04:29 32.89791 -117.42831 14378 ft 161 kts 309°
2026-04-26 04:29 32.90515 -117.43885 14895 ft 173 kts 309°
2026-04-26 04:30 32.91362 -117.45104 14920 ft 210 kts 310°
2026-04-26 04:30 32.92369 -117.46551 14921 ft 239 kts 310°
2026-04-26 04:30 32.93465 -117.48141 14919 ft 259 kts 309°
2026-04-26 04:30 32.94629 -117.49837 14918 ft 271 kts 309°
2026-04-26 04:31 32.95849 -117.51616 14917 ft 279 kts 309°
2026-04-26 04:31 32.97081 -117.53414 14916 ft 284 kts 309°
2026-04-26 04:31 32.98332 -117.55244 14915 ft 287 kts 309°
2026-04-26 04:31 32.99593 -117.57088 14916 ft 289 kts 309°
2026-04-26 04:32 33.00875 -117.58963 14916 ft 290 kts 309°
2026-04-26 04:32 33.02146 -117.60824 14915 ft 290 kts 309°
2026-04-26 04:32 33.03415 -117.62683 14914 ft 291 kts 309°
2026-04-26 04:32 33.04702 -117.64568 14913 ft 291 kts 309°
2026-04-26 04:33 33.05972 -117.66430 14911 ft 291 kts 309°
2026-04-26 04:33 33.07245 -117.68296 14910 ft 291 kts 309°
2026-04-26 04:33 33.08519 -117.70165 14908 ft 291 kts 309°
2026-04-26 04:33 33.09803 -117.72050 14906 ft 291 kts 309°
2026-04-26 04:34 33.11077 -117.73920 14905 ft 291 kts 309°
2026-04-26 04:34 33.11928 -117.75171 14903 ft 291 kts 309°
2026-04-26 04:34 33.13213 -117.77060 14902 ft 291 kts 309°
2026-04-26 04:34 33.14485 -117.78929 14900 ft 291 kts 309°
2026-04-26 04:35 33.15754 -117.80798 14898 ft 291 kts 309°
2026-04-26 04:35 33.17046 -117.82698 14897 ft 291 kts 309°
2026-04-26 04:35 33.18312 -117.84564 14897 ft 291 kts 309°
2026-04-26 04:35 33.19658 -117.86347 14906 ft 292 kts 319°
2026-04-26 04:36 33.21312 -117.87745 14913 ft 291 kts 326°
2026-04-26 04:36 33.22943 -117.89119 15352 ft 275 kts 324°
2026-04-26 04:36 33.24409 -117.90385 16269 ft 248 kts 324°
2026-04-26 04:36 33.25755 -117.91513 17342 ft 221 kts 325°
2026-04-26 04:37 33.26939 -117.92499 18442 ft 195 kts 325°
2026-04-26 04:37 33.27972 -117.93367 19478 ft 172 kts 324°
2026-04-26 04:37 33.28910 -117.94159 20274 ft 164 kts 324°
2026-04-26 04:37 33.29903 -117.94985 20600 ft 181 kts 325°
2026-04-26 04:38 33.30929 -117.95837 21205 ft 181 kts 324°
2026-04-26 04:38 33.31969 -117.96708 21792 ft 183 kts 324°
2026-04-26 04:38 33.33011 -117.97581 22366 ft 184 kts 324°
2026-04-26 04:38 33.34066 -117.98464 22933 ft 186 kts 324°
2026-04-26 04:39 33.35129 -117.99355 23493 ft 188 kts 324°
2026-04-26 04:39 33.36215 -118.00265 24058 ft 190 kts 324°
2026-04-26 04:39 33.37295 -118.01170 24608 ft 192 kts 324°
2026-04-26 04:39 33.38391 -118.02090 25154 ft 194 kts 324°
2026-04-26 04:40 33.39502 -118.03022 25697 ft 196 kts 324°
2026-04-26 04:40 33.40619 -118.03959 26234 ft 197 kts 325°
2026-04-26 04:40 33.41744 -118.04904 26764 ft 199 kts 324°
2026-04-26 04:40 33.42934 -118.05899 26909 ft 223 kts 325°
2026-04-26 04:41 33.44291 -118.07030 26919 ft 248 kts 325°
2026-04-26 04:41 33.45757 -118.08254 26919 ft 268 kts 325°
2026-04-26 04:41 33.47328 -118.09574 26918 ft 284 kts 325°
2026-04-26 04:41 33.48991 -118.10972 26918 ft 297 kts 325°
2026-04-26 04:42 33.50703 -118.12412 26918 ft 306 kts 325°
2026-04-26 04:42 33.52472 -118.13899 26917 ft 312 kts 325°
2026-04-26 04:42 33.54260 -118.15405 26915 ft 317 kts 325°
2026-04-26 04:42 33.56071 -118.16931 26917 ft 321 kts 325°
2026-04-26 04:43 33.57894 -118.18469 26916 ft 323 kts 325°
2026-04-26 04:43 33.59721 -118.20010 26915 ft 325 kts 325°
2026-04-26 04:43 33.61570 -118.21572 26916 ft 326 kts 325°
2026-04-26 04:43 33.63420 -118.23134 26916 ft 327 kts 325°
2026-04-26 04:44 33.65272 -118.24700 26915 ft 327 kts 325°
2026-04-26 04:44 33.67216 -118.26176 26918 ft 328 kts 333°
2026-04-26 04:44 33.69326 -118.27186 26917 ft 328 kts 343°
2026-04-26 04:44 33.71539 -118.27722 26916 ft 328 kts 354°
2026-04-26 04:45 33.73828 -118.27769 26917 ft 329 kts
2026-04-26 04:45 33.76070 -118.27318 26916 ft 329 kts 15°
2026-04-26 04:45 33.78221 -118.26377 26915 ft 329 kts 25°
2026-04-26 04:45 33.80198 -118.24973 26916 ft 330 kts 36°
2026-04-26 04:46 33.81931 -118.23153 26916 ft 330 kts 47°
2026-04-26 04:46 33.83365 -118.20990 26914 ft 330 kts 55°
2026-04-26 04:46 33.84697 -118.18737 26912 ft 330 kts 54°
2026-04-26 04:46 33.86043 -118.16494 26912 ft 330 kts 54°
2026-04-26 04:47 33.87365 -118.14271 26912 ft 330 kts 55°
2026-04-26 04:47 33.88698 -118.12013 26910 ft 330 kts 55°
2026-04-26 04:47 33.90035 -118.09756 26909 ft 330 kts 55°
2026-04-26 04:47 33.91373 -118.07501 26907 ft 330 kts 55°
2026-04-26 04:48 33.94022 -118.03023 26906 ft 330 kts 55°
2026-04-26 04:48 33.95364 -118.00753 26902 ft 331 kts 55°
2026-04-26 04:48 33.96698 -117.98496 26901 ft 331 kts 55°
2026-04-26 04:49 33.98023 -117.96252 26899 ft 331 kts 55°
2026-04-26 04:49 33.99358 -117.93991 26897 ft 331 kts 55°
2026-04-26 04:49 34.00694 -117.91725 26898 ft 331 kts 55°
2026-04-26 04:49 34.02031 -117.89456 26896 ft 331 kts 55°
2026-04-26 04:50 34.03367 -117.87187 26897 ft 331 kts 55°
2026-04-26 04:50 34.04701 -117.84922 26898 ft 331 kts 55°
2026-04-26 04:50 34.06020 -117.82680 26897 ft 331 kts 55°
2026-04-26 04:50 34.07357 -117.80405 26897 ft 332 kts 55°
2026-04-26 04:51 34.08674 -117.78164 26898 ft 332 kts 55°
2026-04-26 04:51 34.10105 -117.75991 26897 ft 332 kts 50°
2026-04-26 04:51 34.11593 -117.73846 26897 ft 332 kts 51°
2026-04-26 04:51 34.13051 -117.71719 26897 ft 332 kts 51°
2026-04-26 04:52 34.14523 -117.69558 26898 ft 332 kts 51°
2026-04-26 04:52 34.16000 -117.67398 26898 ft 333 kts 51°
2026-04-26 04:52 34.17481 -117.65237 26896 ft 334 kts 51°
2026-04-26 04:52 34.18956 -117.63080 26898 ft 334 kts 51°
2026-04-26 04:53 34.20439 -117.60905 26897 ft 335 kts 51°
2026-04-26 04:53 34.21923 -117.58731 26898 ft 335 kts 51°
2026-04-26 04:53 34.23391 -117.56585 26898 ft 335 kts 51°
2026-04-26 04:53 34.24878 -117.54400 26898 ft 336 kts 51°
2026-04-26 04:54 34.26359 -117.52222 26897 ft 336 kts 51°
2026-04-26 04:54 34.27845 -117.50039 26899 ft 335 kts 51°
2026-04-26 04:54 34.29326 -117.47866 26898 ft 335 kts 51°
2026-04-26 04:54 34.30805 -117.45693 26897 ft 334 kts 51°
2026-04-26 04:55 34.32282 -117.43518 26899 ft 334 kts 51°
2026-04-26 04:55 34.33762 -117.41339 26896 ft 335 kts 51°
2026-04-26 04:55 34.35224 -117.39184 26897 ft 335 kts 51°
2026-04-26 04:55 34.36704 -117.37003 26897 ft 335 kts 51°
2026-04-26 04:56 34.38189 -117.34813 26898 ft 335 kts 51°
2026-04-26 04:56 34.39669 -117.32629 26897 ft 335 kts 51°
2026-04-26 04:56 34.41131 -117.30469 26897 ft 334 kts 51°
2026-04-26 04:56 34.42611 -117.28282 26898 ft 334 kts 51°
2026-04-26 04:57 34.44086 -117.26101 26897 ft 334 kts 51°
2026-04-26 04:57 34.45524 -117.23984 27580 ft 311 kts 51°
2026-04-26 04:57 34.46845 -117.22042 28433 ft 291 kts 51°
2026-04-26 04:57 34.48113 -117.20162 28717 ft 293 kts 51°
2026-04-26 04:58 34.49406 -117.18234 28900 ft 298 kts 51°
2026-04-26 04:58 34.50741 -117.16251 28939 ft 306 kts 51°
2026-04-26 04:58 34.53492 -117.12168 29005 ft 317 kts 51°
2026-04-26 04:59 34.56306 -117.07985 29009 ft 325 kts 51°
2026-04-26 04:59 34.59193 -117.03691 29009 ft 330 kts 51°
2026-04-26 05:00 34.62107 -116.99350 29008 ft 332 kts 51°
2026-04-26 05:00 34.65031 -116.94990 29006 ft 333 kts 51°
2026-04-26 05:01 34.67961 -116.90616 29005 ft 333 kts 51°
2026-04-26 05:01 34.70877 -116.86256 29001 ft 333 kts 51°
2026-04-26 05:02 34.73783 -116.81906 28998 ft 333 kts 51°
2026-04-26 05:02 34.76709 -116.77523 28995 ft 333 kts 51°
2026-04-26 05:03 34.79610 -116.73169 28976 ft 333 kts 51°
2026-04-26 05:03 34.82514 -116.68807 28980 ft 331 kts 51°
2026-04-26 05:04 34.85457 -116.64501 28969 ft 330 kts 45°
2026-04-26 05:04 34.89017 -116.60979 28963 ft 330 kts 39°
2026-04-26 05:05 34.92600 -116.57489 28963 ft 330 kts 39°
2026-04-26 05:05 34.96179 -116.54027 28973 ft 330 kts 39°
2026-04-26 05:06 34.99772 -116.50538 28966 ft 330 kts 39°
2026-04-26 05:06 35.03372 -116.47040 28964 ft 330 kts 39°
2026-04-26 05:07 35.06949 -116.43561 28961 ft 330 kts 39°
2026-04-26 05:07 35.10491 -116.40005 28975 ft 330 kts 45°
2026-04-26 05:08 35.13555 -116.35878 28978 ft 329 kts 47°